International Skating Union - Official Site

ISU World Allround Speed Skating Championships 2015
March 7 - 8, 2015

Draw | Lap Times | Index | Classification

Referee: Erik  ØSMUNDSET  (NOR)
Starter: Jouko  VESTERLUND  (FIN)
StartTime: EndTime: Air Temp: Ice Temp: Humidity:
13:57 14:56 16℃ -7℃ 29%
Result 10000m Men
Rankings as of Mar 8 2015 2:57PM
Rank: No.: Name: Nation: Time: Behind: Points:
1 44 Sven  Kramer NED NED 12:56.69400m - 34.53 - (34.5)
800m - 1:05.36 - (30.8)
1200m - 1:36.49 - (31.1)
1600m - 2:07.33 - (30.8)
2000m - 2:37.88 - (30.5)
2400m - 3:08.43 - (30.5)
2800m - 3:39.35 - (30.9)
3200m - 4:10.13 - (30.7)
3600m - 4:41.09 - (30.9)
4000m - 5:11.87 - (30.7)
4400m - 5:42.80 - (30.9)
4800m - 6:13.52 - (30.7)
5200m - 6:44.43 - (30.9)
5600m - 7:15.25 - (30.8)
6000m - 7:46.17 - (30.9)
6400m - 8:16.97 - (30.8)
6800m - 8:47.96 - (30.9)
7200m - 9:18.79 - (30.8)
7600m - 9:49.60 - (30.8)
8000m - 10:20.28 - (30.6)
8400m - 10:51.28 - (31.0)
8800m - 11:22.23 - (30.9)
9200m - 11:53.46 - (31.2)
9600m - 12:24.93 - (31.4)
10000m - 12:56.69 - (31.7)
38.834
2 35 Alexis  Contin FRA FRA 13:04.80400m - 35.59 - (35.5)
800m - 1:06.75 - (31.1)
1200m - 1:37.87 - (31.1)
1600m - 2:08.93 - (31.0)
2000m - 2:40.04 - (31.1)
2400m - 3:11.00 - (30.9)
2800m - 3:42.19 - (31.1)
3200m - 4:13.34 - (31.1)
3600m - 4:44.58 - (31.2)
4000m - 5:15.80 - (31.2)
4400m - 5:47.27 - (31.4)
4800m - 6:18.85 - (31.5)
5200m - 6:50.18 - (31.3)
5600m - 7:21.68 - (31.5)
6000m - 7:53.15 - (31.4)
6400m - 8:24.61 - (31.4)
6800m - 8:56.11 - (31.5)
7200m - 9:27.82 - (31.7)
7600m - 9:59.21 - (31.3)
8000m - 10:30.21 - (31.0)
8400m - 11:01.45 - (31.2)
8800m - 11:33.49 - (32.0)
9200m - 12:04.38 - (30.8)
9600m - 12:33.87 - (29.4)
10000m - 13:04.80 - (30.9)
8.11 39.240
3 32 Bart  Swings BEL BEL 13:06.62400m - 35.23 - (35.2)
800m - 1:06.61 - (31.3)
1200m - 1:38.05 - (31.4)
1600m - 2:09.40 - (31.3)
2000m - 2:40.53 - (31.1)
2400m - 3:11.68 - (31.1)
2800m - 3:42.90 - (31.2)
3200m - 4:14.13 - (31.2)
3600m - 4:45.46 - (31.3)
4000m - 5:17.01 - (31.5)
4400m - 5:48.29 - (31.2)
4800m - 6:19.83 - (31.5)
5200m - 6:51.22 - (31.3)
5600m - 7:22.65 - (31.4)
6000m - 7:54.17 - (31.5)
6400m - 8:25.65 - (31.4)
6800m - 8:56.98 - (31.3)
7200m - 9:28.73 - (31.7)
7600m - 9:59.79 - (31.0)
8000m - 10:30.76 - (30.9)
8400m - 11:01.64 - (30.8)
8800m - 11:32.70 - (31.0)
9200m - 12:03.95 - (31.2)
9600m - 12:35.10 - (31.1)
10000m - 13:06.62 - (31.5)
9.93 39.331
4 48 Sverre  Lunde Pedersen NOR NOR 13:09.45400m - 34.97 - (34.9)
800m - 1:05.85 - (30.8)
1200m - 1:37.12 - (31.2)
1600m - 2:08.32 - (31.2)
2000m - 2:39.47 - (31.1)
2400m - 3:10.96 - (31.4)
2800m - 3:42.33 - (31.3)
3200m - 4:13.79 - (31.4)
3600m - 4:45.13 - (31.3)
4000m - 5:16.67 - (31.5)
4400m - 5:48.11 - (31.4)
4800m - 6:19.49 - (31.3)
5200m - 6:50.83 - (31.3)
5600m - 7:22.33 - (31.5)
6000m - 7:53.56 - (31.2)
6400m - 8:24.88 - (31.3)
6800m - 8:56.18 - (31.3)
7200m - 9:27.39 - (31.2)
7600m - 9:58.60 - (31.2)
8000m - 10:29.93 - (31.3)
8400m - 11:01.19 - (31.2)
8800m - 11:32.70 - (31.5)
9200m - 12:04.29 - (31.5)
9600m - 12:36.39 - (32.1)
10000m - 13:09.45 - (33.0)
12.76 39.472
5 54 Denis  Yuskov RUS RUS 13:12.49400m - 34.78 - (34.7)
800m - 1:05.90 - (31.1)
1200m - 1:36.98 - (31.0)
1600m - 2:07.99 - (31.0)
2000m - 2:38.97 - (30.9)
2400m - 3:10.07 - (31.1)
2800m - 3:40.94 - (30.8)
3200m - 4:12.04 - (31.1)
3600m - 4:43.12 - (31.0)
4000m - 5:14.45 - (31.3)
4400m - 5:46.18 - (31.7)
4800m - 6:17.60 - (31.4)
5200m - 6:49.43 - (31.8)
5600m - 7:21.97 - (32.5)
6000m - 7:55.06 - (33.0)
6400m - 8:27.89 - (32.8)
6800m - 9:00.00 - (32.1)
7200m - 9:31.58 - (31.5)
7600m - 10:02.62 - (31.0)
8000m - 10:34.66 - (32.0)
8400m - 11:06.39 - (31.7)
8800m - 11:39.18 - (32.7)
9200m - 12:10.47 - (31.2)
9600m - 12:41.51 - (31.0)
10000m - 13:12.49 - (30.9)
15.80 39.624
6 43 Douwe  de Vries NED NED 13:17.64400m - 35.51 - (35.5)
800m - 1:07.61 - (32.1)
1200m - 1:39.65 - (32.0)
1600m - 2:11.57 - (31.9)
2000m - 2:43.02 - (31.4)
2400m - 3:14.60 - (31.5)
2800m - 3:46.25 - (31.6)
3200m - 4:17.74 - (31.4)
3600m - 4:49.33 - (31.5)
4000m - 5:20.82 - (31.4)
4400m - 5:52.52 - (31.7)
4800m - 6:24.41 - (31.8)
5200m - 6:56.32 - (31.9)
5600m - 7:28.02 - (31.7)
6000m - 8:00.01 - (31.9)
6400m - 8:31.93 - (31.9)
6800m - 9:03.82 - (31.8)
7200m - 9:35.61 - (31.7)
7600m - 10:07.42 - (31.8)
8000m - 10:39.36 - (31.9)
8400m - 11:11.32 - (31.9)
8800m - 11:42.95 - (31.6)
9200m - 12:14.53 - (31.5)
9600m - 12:46.14 - (31.6)
10000m - 13:17.64 - (31.5)
20.95 39.882
7 50 Konrad  Niedzwiedzki POL POL 13:42.86400m - 36.57 - (36.5)
800m - 1:08.51 - (31.9)
1200m - 1:40.95 - (32.4)
1600m - 2:13.81 - (32.8)
2000m - 2:46.41 - (32.6)
2400m - 3:19.26 - (32.8)
2800m - 3:52.37 - (33.1)
3200m - 4:25.21 - (32.8)
3600m - 4:58.23 - (33.0)
4000m - 5:31.29 - (33.0)
4400m - 6:04.36 - (33.0)
4800m - 6:37.20 - (32.8)
5200m - 7:10.05 - (32.8)
5600m - 7:42.95 - (32.9)
6000m - 8:16.04 - (33.0)
6400m - 8:49.02 - (32.9)
6800m - 9:21.77 - (32.7)
7200m - 9:54.38 - (32.6)
7600m - 10:26.92 - (32.5)
8000m - 10:59.88 - (32.9)
8400m - 11:32.84 - (32.9)
8800m - 12:05.72 - (32.8)
9200m - 12:38.60 - (32.8)
9600m - 13:11.30 - (32.7)
10000m - 13:42.86 - (31.5)
46.17 41.143
8 34 Denny  Morrison CAN CAN 13:54.90400m - 36.99 - (36.9)
800m - 1:10.33 - (33.3)
1200m - 1:44.13 - (33.8)
1600m - 2:17.90 - (33.7)
2000m - 2:51.15 - (33.2)
2400m - 3:23.97 - (32.8)
2800m - 3:56.97 - (33.0)
3200m - 4:30.17 - (33.2)
3600m - 5:03.37 - (33.2)
4000m - 5:36.75 - (33.3)
4400m - 6:10.34 - (33.5)
4800m - 6:44.01 - (33.6)
5200m - 7:17.59 - (33.5)
5600m - 7:50.88 - (33.2)
6000m - 8:24.24 - (33.3)
6400m - 8:57.61 - (33.3)
6800m - 9:31.00 - (33.3)
7200m - 10:04.23 - (33.2)
7600m - 10:37.52 - (33.2)
8000m - 11:10.76 - (33.2)
8400m - 11:44.08 - (33.3)
8800m - 12:17.36 - (33.2)
9200m - 12:50.64 - (33.2)
9600m - 13:23.44 - (32.8)
10000m - 13:54.90 - (31.4)
58.21 41.745